CAPE
1354 1270 1432 1339 1397 1334 1213 1221 1185 1249 1298 1336 1361 1314 1409 1412 1351 1231 1294 1670 1872 1851 1782 1743 1779 1818 1890 2056 2358 2499 2514 2624 2622 2518 2779 2894 2808 2888 2944 2847 2815 2806 2853 2958 3073 3074 2915 2727 2565 2414 2218 1835 1445 1537 1541 1461 1771 1623 1556 1566 1666 2164 2625 2538 2488 2206 2559 4096 2928 2733 2240 1938 1804 1849 1858 1576 1377 1768 2291 2233 2391 2812 2373 1971 1927
1426 1372 1467 1504 1444 1523 1396 1343 1342 1346 1231 1099 1185 1233 1256 1232 1249 1308 1333 1566 1720 1718 1676 1504 1546 1759 1882 1883 2013 2296 2439 2442 2530 2530 2733 2785 2756 2699 2853 2952 2834 2809 2852 2800 2708 2580 2622 2664 2714 2600 2383 2142 1813 1805 1778 1599 1609 1963 1963 1849 2254 2752 3248 2869 2564 2532 2449 2752 2600 2769 2380 2297 2192 1749 1612 1455 1510 2001 2034 1794 2236 2393 2227 2032 1883
1525 1492 1503 1584 1496 1535 1511 1437 1477 1415 1246 1106 970 1031 1188 1267 1269 1282 1268 1210 1319 1515 1562 1518 1484 1752 1903 1872 1870 2042 2264 2348 2407 2454 2490 2718 2728 2657 2546 2654 2739 2782 2772 2776 2680 2511 2469 2515 2514 2429 2571 2393 2017 1929 1811 1603 1507 1840 1856 1842 1949 2330 2906 3233 2924 2980 2774 2506 2289 2863 2634 2618 2173 1589 1499 1561 1757 1830 1840 1951 2316 2009 1562 1568 1591
1572 1574 1558 1620 1594 1540 1507 1460 1463 1430 1218 1228 1216 1055 1009 1070 1083 1002 888 874 1039 1226 1396 1434 1338 1458 1646 1776 1737 1768 2012 2170 2232 2288 2319 2571 2683 2618 2488 2399 2545 2682 2761 2798 2781 2728 2652 2568 2512 2506 2416 2412 2205 2023 1956 1859 1552 1408 1592 1773 1658 1450 2681 3367 3250 2516 2353 2470 2122 2594 2794 2733 2067 1556 1577 2049 1595 1563 1650 1848 1891 1718 1564 1307 1142
1653 1606 1602 1631 1643 1597 1533 1466 1460 1430 1286 1183 1213 1195 1049 876 845 785 766 691 900 1058 1134 1168 1252 1309 1344 1423 1586 1649 1710 1900 2024 2048 2102 2276 2497 2501 2437 2333 2332 2484 2566 2590 3145 2758 2713 2696 2701 2688 2461 2361 2371 2154 1939 1718 1436 1439 2219 2536 1899 1706 2621 2830 2839 2536 2310 2134 2276 2945 2898 2511 1964 1476 1434 1601 1400 1382 1259 1647 1514 1395 1289 1156 1053
1740 1696 1572 1634 1632 1676 1665 1520 1454 1430 1369 1259 1178 1127 1070 898 176 420 301 578 339 776 989 1013 1086 1220 1263 1286 1326 1418 1495 1522 1608 1799 1866 1918 2173 2300 2268 2190 2103 2395 2706 2740 2753 3030 2899 2762 2689 2644 2437 2338 2259 2013 1820 1553 2108 1780 1678 2006 2317 2455 2240 2436 2932 2821 2578 2463 2461 2494 2671 2433 2075 1479 947 1239 1157 1239 1197 1225 1339 1352 1213 1102 969
1602 1575 1493 1570 1531 1513 1654 1595 1399 1363 1344 1305 1216 1108 1008 945 798 216 375 220 290 536 557 814 947 1072 1162 1168 1177 1178 1185 1238 1282 1254 1343 1388 1609 2010 2097 2065 1983 2110 2599 2875 2864 2826 2916 2868 2765 2701 2485 2326 2149 2266 2000 1741 2354 2324 1865 1990 2281 2270 2269 2650 3319 3158 2855 2565 2555 2534 2485 2350 1878 1482 1085 1201 1006 1046 1086 866 1095 1070 1012 893 741
1450 1382 1319 1446 1391 1328 1312 1435 1410 1273 1243 1228 1191 1104 950 754 466 71 243 191 168 450 497 450 784 901 998 1054 1090 1095 1085 1086 1093 1081 1072 1077 1151 1560 1809 1862 1846 1757 1956 2379 2623 2686 2688 2712 2696 2588 2494 2440 2399 2334 2225 2120 2224 2343 2375 2490 2389 2268 2004 2345 3223 2921 2567 2426 2315 2541 2426 2080 1746 1412 1063 859 944 947 792 810 778 894 988 820 779
1314 1224 1167 1254 1265 1174 1026 1081 1208 1205 1174 1106 1036 922 776 600 290 148 201 223 184 265 402 397 631 738 777 928 981 992 992 948 836 810 735 964 972 1212 1474 1626 1678 1670 1684 1816 2074 2309 2402 2446 2433 2389 2846 4057 4758 3814 2965 2701 2140 2077 2044 2144 2070 1846 1754 1948 2237 2475 2373 2557 2524 2296 2270 2141 1876 1523 1173 887 771 750 935 1079 820 779 778 724 707
1588 1475 1301 1230 1267 1247 1156 1069 1084 1089 945 945 936 915 580 490 230 266 275 203 154 424 484 641 633 429 533 565 697 881 921 943 1422 1422 1228 798 806 963 1336 1533 1648 1672 1712 1747 1806 2066 2279 2314 2851 3833 4194 3995 4238 5010 4466 4332 3599 2227 2034 2184 2372 1926 1876 2096 2482 2563 2583 2706 2521 2160 2095 1910 1734 1410 1057 989 997 809 735 937 782 654 577 617 576
1670 1658 1562 1392 1231 1330 1340 1172 1107 1285 1262 942 917 960 959 682 355 385 360 316 207 513 742 641 692 513 636 601 559 549 599 849 1946 1479 1200 1570 1138 755 1134 1480 1562 1570 1573 1680 1729 1885 2252 2438 2555 4149 4624 4678 4625 4698 4543 4735 4456 4034 4205 3650 3140 2020 2049 2146 2401 2504 2660 2476 2234 1999 1975 1895 1596 1254 1142 1204 1002 862 648 725 604 611 513 503 450
1497 1437 1448 1420 1360 1200 1213 1312 1225 1572 1900 1599 1080 905 940 931 807 691 710 668 668 714 824 817 688 693 637 626 608 617 697 1263 1330 1374 1342 1226 2093 1075 803 1037 1549 1599 1665 1771 1788 1868 2226 2575 2585 2896 3907 3849 3955 4430 4864 4725 4503 4506 4285 4477 4429 4114 3296 2744 2526 2479 2356 2204 2076 1917 1708 1564 1435 1253 1181 1146 1073 1052 1014 708 625 621 534 486 402
1399 1332 1332 1340 1302 1494 1674 1658 1549 1689 2122 2575 2391 1642 954 910 882 791 713 725 692 677 778 840 679 764 765 690 638 716 814 955 1131 1119 1235 1259 1584 2284 802 898 1140 1537 1618 1850 1939 1990 2184 2432 2423 2494 3214 4762 5152 4064 4210 4849 4986 4609 4152 3883 3681 3474 3144 2972 2882 2620 2272 2076 1976 1855 1567 1427 1414 1336 1188 992 762 592 628 439 466 558 541 477 367
1538 1333 1204 1123 1204 1251 1476 1866 2162 2236 2278 2488 2797 2845 2179 1416 909 767 679 622 607 600 691 765 776 737 759 727 731 799 842 1366 1221 1301 1227 1219 1205 1533 1446 1268 1438 1662 1866 2182 2271 2264 2322 2356 2346 2459 2807 3666 4270 3412 3112 3960 4314 3795 3425 3122 2510 2095 1991 1967 2231 2706 2504 2107 1961 1691 1490 1396 1388 1205 918 706 540 488 630 372 355 512 578 474 290
1946 1788 1625 1494 1353 1306 1307 1380 1622 1953 2256 2415 2559 2726 2770 2194 1507 1062 700 627 514 507 703 789 800 786 926 834 798 1003 1185 1364 1265 1324 1371 1377 1412 1360 1591 1839 1829 1850 2002 2201 2299 2251 2268 2406 2330 2316 2464 2534 3334 3095 2511 3560 3717 3346 3174 2868 2480 2134 1825 1557 1375 1582 1677 1653 1655 1565 1447 1251 1018 845 686 548 390 686 521 342 303 338 344 240 142
1578 1656 1852 2007 1943 1822 1602 1530 1627 1716 1826 1969 2190 2475 2612 2640 2252 1716 1167 866 694 477 448 635 751 833 1016 1125 1096 1166 1323 1548 1473 1400 1413 1420 1354 1342 1349 1806 2055 2028 2060 2191 2239 2265 2319 2449 2398 2323 2299 2304 3443 3377 3138 3393 3438 3130 2895 2760 2492 2256 1964 1640 1348 1030 1033 1112 1099 1038 881 684 625 551 500 428 381 510 299 128 99 92 97 90 110
1618 1559 1523 1566 1611 1768 1888 1849 1671 1724 1842 1940 2076 2329 2549 2658 2639 2216 1744 1281 939 1047 936 798 739 827 1129 1264 1267 1293 1379 1574 1611 1525 1509 1537 1484 1418 1371 1275 1830 1989 2039 2108 2316 2466 2544 2541 2592 2466 2349 2321 2790 3173 2943 3233 3200 2958 2694 2608 2423 2124 1847 1467 1248 982 652 530 521 500 374 235 353 371 370 319 189 214 169 71 37 53 73 74 61
1460 1450 1496 1569 1668 1678 1593 1633 1681 1774 1946 2025 2096 2239 2484 2647 2737 2642 2070 1638 1319 1021 1172 1190 1034 920 1084 1356 1311 1318 1366 1462 1613 1669 1603 1539 1381 1260 1343 1258 1616 1862 1925 1908 1920 2124 2323 3530 3182 2454 2342 2282 2634 3154 2601 2810 2704 2632 2581 2524 2278 1833 1452 1254 1119 922 687 507 531 517 404 297 270 318 288 217 147 92 36 20 18 49 76 79 89
1296 1353 1395 1484 1655 1719 1736 1745 1670 1570 1831 2044 2237 2410 2518 2649 2739 2747 2523 2031 1730 1355 1217 1264 1239 1175 1160 1327 2204 1629 1298 1388 1470 1511 1478 1452 1412 1354 1279 1270 1515 1742 1859 1828 1819 2238 2264 4054 4452 3108 2252 2136 2389 3040 2717 2808 2392 2389 2287 2258 2016 1660 1454 1315 1166 1010 742 446 434 332 214 156 226 290 253 151 88 54 52 38 37 46 79 85 112
1422 1464 1511 1609 1670 1720 1743 1793 1923 1956 1944 1952 2101 2311 2507 2627 2757 2780 2586 2335 2017 1399 1296 1435 1310 1313 1319 1413 1767 2150 1317 1337 1368 1407 1420 1378 1217 1072 1121 1246 1375 1572 1738 1800 1775 1997 2103 2857 4289 3457 2248 2120 2095 2720 2718 2508 2202 2127 2045 1933 1778 1649 1448 1318 1195 920 573 434 414 326 209 144 221 182 114 101 97 80 67 48 43 39 28 38 52
1115 1105 1115 1108 1083 1197 1423 1542 1589 1641 1829 1985 2095 2155 2225 2278 2354 2385 2486 2365 2071 1702 1113 1263 1251 1358 1489 1556 1703 2178 1587 1407 1403 1330 1252 1217 1222 1245 1238 1210 1324 1456 1602 1733 1720 1760 1935 2441 3206 3422 2632 2140 2020 2054 2363 2495 2143 1962 1918 1796 1701 1608 1411 1303 787 701 563 407 240 152 133 0 71 119 67 60 93 95 76 62 21 7 5 0 1
785 718 623 550 518 633 746 948 1153 1336 1444 1567 1641 1743 1764 1835 1835 1843 2016 2166 1899 1703 1539 1205 1101 1372 1366 1694 1868 1939 1735 1410 1268 1297 1377 1446 1510 1415 1375 1315 1326 1368 1438 1600 1616 1596 1678 1981 2323 2659 2555 2272 2214 2200 2145 2086 1942 1803 1900 1871 1735 1410 1405 1114 788 596 475 328 208 213 73 34 50 60 35 33 76 110 98 49 0 0 0 0 0
572 497 428 374 122 2 95 396 712 977 1135 1202 1326 1398 1367 1368 1427 1552 1634 1784 1624 1420 1450 1513 1145 1309 1544 1727 1716 1792 1819 1790 1778 1644 1588 1592 1585 1560 1518 1568 1638 1567 1367 1503 1572 1573 1561 1656 1839 2069 2214 2152 2102 2036 2020 1999 1959 1951 1970 1869 1778 1483 900 828 627 359 337 256 203 23 8 33 26 29 36 39 48 47 39 0 0 0 0 0 0
461 428 356 204 0 0 0 0 215 728 926 985 1108 1246 1294 1251 1239 1410 1529 1623 1570 1412 1265 1490 1258 1210 1508 1588 1585 1578 1562 1603 1656 1752 1830 1833 1851 1770 1698 1634 1637 1894 1729 1532 1492 1536 1581 1645 1653 1689 1732 1747 1679 1615 1735 1813 1892 2001 1979 1824 1596 1229 894 346 109 206 321 249 76 54 42 40 43 48 56 52 37 0 0 0 0 0 0 0 0
430 371 117 0 0 0 0 0 0 67 458 757 950 1032 1218 1125 1125 1194 1229 1239 1372 1447 1357 1186 1275 1216 1179 1426 1498 1486 1421 1345 1342 1429 1573 1677 1722 1757 1759 1718 1590 1895 2165 2106 2030 1978 2025 2092 2019 1892 1724 1591 1449 1582 1820 1917 1963 1830 1490 1285 1104 921 710 444 372 359 274 130 84 77 66 71 74 77 58 14 0 0 0 0 0 0 0 0 0
431 368 298 258 170 0 0 0 0 0 0 351 638 816 948 1113 1273 1233 1154 1238 1295 1383 1322 1209 1228 1150 1136 1100 1169 1254 1262 1246 1226 1273 1373 1543 1675 1725 1673 1609 1520 1443 1505 1732 1820 1772 1674 1602 1509 1463 1426 1418 1380 1416 1685 1779 1743 1428 1222 1054 756 528 466 433 368 256 50 83 91 91 95 87 78 52 5 0 0 0 0 0 0 0 0 0 0
360 301 41 43 0 0 0 0 0 0 0 0 373 604 673 729 845 966 1103 1233 1314 1259 1284 1315 1289 1111 1149 1116 983 989 1044 1080 1144 1192 1239 1352 1532 1676 1713 1720 1593 1496 1376 1438 1394 1246 1195 1161 1081 1206 1375 1228 1180 1222 1452 1418 1229 1133 962 742 538 465 340 137 90 64 85 74 84 91 71 60 26 0 0 0 0 0 0 0 0 0 0 0 0
306 301 0 0 0 0 0 0 179 326 254 39 32 206 417 550 586 656 752 801 982 1188 1168 1113 1185 1231 1365 1346 1299 1270 1224 1080 1096 1145 1137 1273 1466 1594 1736 1698 1505 1432 1440 1383 1402 1276 1238 1347 1380 1193 973 645 672 1070 1045 903 1009 907 722 596 448 231 79 90 72 66 50 61 68 47 32 6 0 0 0 0 0 0 0 0 0 0 0 0 0
433 345 203 0 0 130 216 8 205 0 234 315 103 0 12 140 258 408 471 541 626 667 986 1088 1162 1238 1233 1366 1434 1380 1225 1143 1152 1050 1041 1204 1431 1583 1534 1391 1361 1511 1577 1521 1502 1390 1297 1126 688 263 113 256 610 926 989 681 421 569 537 424 252 177 120 90 82 49 46 38 22 8 0 0 0 0 0 0 0 0 0 0 0 0 0 0 0
574 368 341 71 0 210 145 0 106 212 269 364 397 343 177 0 0 240 431 482 477 506 535 692 931 1035 1070 1270 1359 1409 1273 1114 977 922 1130 1278 1320 1215 1008 987 1034 1062 1076 1047 998 930 757 425 259 240 204 382 731 689 844 895 570 325 213 237 148 147 76 28 26 72 19 5 0 0 0 0 0 0 0 0 0 0 0 0 0 0 0 0 0
591 516 410 392 344 247 0 0 0 134 122 18 210 396 298 18 31 298 413 513 624 556 588 580 576 628 960 1290 1293 1232 886 806 902 1020 1007 1006 1036 967 838 627 489 410 390 394 322 204 82 98 105 97 151 43 302 478 441 370 160 150 168 160 121 15 0 0 0 0 0 0 0 0 0 0 0 0 0 0 0 0 0 0 0 0 0 0 0
644 609 502 430 373 292 116 0 37 210 0 39 92 119 138 168 307 163 399 532 597 561 556 635 624 731 1049 1029 1086 890 916 945 875 898 824 709 529 331 177 103 63 38 23 0 0 0 0 0 0 0 0 150 172 222 143 104 166 240 151 127 62 0 0 0 0 0 0 0 0 0 0 0 0 0 0 0 0 0 0 0 0 0 0 0 0
689 658 569 498 450 388 306 278 168 202 39 15 34 183 180 0 0 66 237 353 400 578 616 587 729 804 776 770 697 634 686 498 114 242 166 117 81 48 26 42 71 85 93 97 140 115 118 151 148 119 148 154 147 157 95 144 201 185 152 144 128 0 0 0 0 0 0 0 0 0 0 0 0 0 0 0 0 0 0 0 0 0 0 0 0
631 513 534 496 487 385 292 242 315 308 208 97 0 139 312 260 155 363 430 294 218 384 413 367 368 198 100 48 20 4 2 2 7 27 38 61 80 92 127 128 120 89 94 100 94 98 140 110 106 107 98 102 116 100 118 145 147 112 69 0 0 0 0 0 0 0 0 0 0 0 0 0 0 0 0 0 0 0 0 0 0 0 0 0 0
534 504 485 482 522 464 405 276 186 206 227 197 0 0 0 0 0 49 272 188 110 33 32 31 34 22 14 10 8 17 26 43 64 92 119 148 168 182 194 188 157 118 112 104 91 80 83 84 84 83 91 100 106 109 98 45 0 0 0 0 0 0 0 0 0 0 0 0 0 0 0 0 0 0 0 0 0 0 0 0 0 0 0 0 0
405 416 450 484 483 472 465 367 274 221 253 240 226 154 0 0 0 0 10 16 25 21 0 17 38 50 59 75 85 96 105 146 179 201 203 209 210 226 240 224 158 118 118 110 97 58 2 0 0 0 0 0 0 0 0 0 0 0 0 0 0 0 0 0 0 0 0 0 0 0 0 0 0 0 0 0 0 0 0 0 0 0 0 0 0
275 264 261 311 332 449 462 394 395 319 315 306 248 239 237 185 54 87 143 150 134 98 80 71 64 81 110 126 172 202 216 225 228 223 217 212 204 172 142 104 80 46 62 47 20 12 7 6 1 0 0 0 0 0 0 0 0 0 0 0 0 0 0 0 0 0 0 0 0 0 0 0 0 0 0 0 0 0 0 0 0 0 0 0 0
226 274 275 298 289 351 363 405 364 321 296 291 275 238 225 216 205 189 157 88 78 80 91 103 119 143 167 170 159 154 154 163 171 166 144 126 99 86 80 95 15 49 132 160 115 15 6 2 0 0 0 0 0 0 0 0 0 0 0 0 0 0 0 0 0 0 0 0 0 0 0 0 0 0 0 0 0 0 0 0 0 0 0 0 0
182 0 157 259 297 259 303 448 407 332 266 179 49 0 58 51 0 30 41 0 0 61 89 123 140 158 153 130 120 100 96 99 104 94 83 20 0 109 54 61 130 146 162 187 188 144 106 93 88 86 27 0 0 0 0 0 0 0 0 0 0 0 0 0 0 0 0 0 0 0 0 0 0 0 0 0 0 0 0 0 0 0 0 0 0
7 0 0 0 0 0 125 304 356 311 221 188 150 0 0 0 0 0 0 0 0 0 0 87 92 125 129 123 100 91 94 37 0 0 0 0 0 0 0 0 27 141 154 134 146 162 140 116 96 91 57 0 0 0 0 0 0 0 0 0 0 0 0 0 0 0 0 0 0 0 0 0 0 0 0 0 0 0 0 0 0 0 0 0 0
83 429 0 0 0 0 0 0 0 0 0 0 16 0 0 0 0 0 0 0 0 0 0 0 87 119 127 42 0 0 0 0 0 0 0 0 0 0 0 88 93 36 0 0 58 104 99 104 112 0 0 0 0 0 0 0 0 0 0 0 0 0 0 0 0 0 0 0 0 0 0 0 0 0 0 0 0 0 0 0 0 0 0 0 0
0 0 0 0 0 0 0 0 0 0 0 0 0 0 0 0 0 0 0 0 0 0 0 0 0 0 0 0 0 0 0 0 0 0 0 0 2 0 2 32 56 16 0 0 0 0 0 12 0 0 0 0 0 0 0 0 0 0 0 0 1 1 0 0 0 0 0 1 0 0 0 1 6 9 9 2 0 2 4 2 1 2 3 4 2
0 0 0 0 0 0 0 0 0 0 0 0 0 2 0 0 0 0 0 0 0 0 0 0 0 0 0 0 0 0 0 0 0 0 0 0 0 0 0 0 0 0 1 0 0 3 0 0 8 0 0 0 0 0 0 0 0 0 0 0 0 0 0 0 0 0 1 4 17 13 12 14 20 17 8 4 2 4 5 5 5 6 7 7 1
132 62 0 0 0 0 1 0 0 0 0 0 6 0 0 0 0 0 0 0 0 0 0 0 0 0 0 0 0 0 0 0 0 0 0 0 0 0 9 9 0 0 6 0 0 0 0 6 12 14 17 19 32 47 46 45 48 46 49 47 55 64 55 38 28 22 17 7 6 14 13 11 13 12 12 12 12 14 17 16 17 16 11 1 0
125 70 17 21 49 4 0 0 0 0 0 1 0 0 0 0 0 0 0 0 0 0 0 0 0 0 0 0 0 0 0 0 0 0 0 0 0 0 2 10 9 9 5 0 0 0 0 0 0 2 3 22 25 24 12 2 17 44 47 48 54 56 50 42 37 36 29 27 20 26 0 1 1 14 20 21 22 23 26 26 22 11 0 0 0
0 1 12 0 0 0 0 1 21 0 0 0 0 0 0 0 0 0 0 0 0 0 0 0 0 0 0 0 0 0 0 0 0 0 0 0 0 0 0 0 0 0 0 0 0 0 0 0 0 0 0 0 0 0 0 10 42 55 66 80 76 62 58 59 57 53 46 34 37 39 31 14 26 20 6 10 18 35 28 17 0 0 0 0 0
0 1 0 0 0 0 0 0 0 0 0 0 0 0 0 0 0 0 0 0 0 0 0 0 0 0 0 0 0 0 0 0 0 0 0 0 0 0 0 0 0 0 0 0 0 0 0 0 0 0 0 0 0 0 0 9 48 85 96 74 72 69 73 76 76 56 54 42 33 27 29 34 38 44 38 6 32 33 22 13 11 11 9 0 0
21 18 0 0 0 0 0 0 0 2 0 0 0 0 0 0 0 0 0 0 0 0 0 0 0 0 0 0 0 0 0 0 0 0 0 0 0 0 0 0 0 0 0 0 0 0 0 0 0 0 0 0 0 0 0 0 10 21 38 46 42 41 43 34 35 42 38 26 29 34 41 46 52 52 37 42 38 24 19 17 16 12 0 0 0
0 0 0 0 0 0 0 0 0 0 0 0 0 0 0 0 0 0 0 0 0 0 0 0 0 0 0 0 0 0 0 0 0 0 0 0 0 0 0 0 0 0 0 0 0 0 0 0 0 0 0 0 0 0 0 0 0 0 0 4 17 26 33 33 35 35 33 38 40 39 34 34 37 38 38 29 24 22 21 20 16 12 0 0 5
0 0 0 0 0 0 0 0 0 0 0 0 0 0 0 0 0 0 0 0 0 0 0 0 0 0 0 0 0 0 0 0 0 0 0 0 0 0 0 0 0 0 0 0 0 0 0 0 0 1 6 6 3 0 0 0 0 0 0 1 2 1 1 10 22 29 33 34 32 30 31 30 28 27 28 31 28 25 22 17 12 10 7 5 2
2 0 0 0 0 0 0 0 0 0 0 0 0 0 0 0 0 0 0 0 0 0 0 0 0 0 0 0 0 0 0 0 0 0 0 0 0 0 0 0 0 0 0 0 0 0 6 6 8 7 7 7 3 0 0 0 0 0 0 0 0 0 0 0 0 0 0 2 17 18 20 23 21 20 21 19 16 15 12 6 5 1 0 0 0
Wind_Speed
6 7 5 5 5 5 5 6 7 7 8 8 10 12 13 14 14 14 15 14 14 13 13 12 11 11 11 12 12 13 13 13 14 14 13 12 12 12 12 12 11 10 9 9 8 8 7 7 7 8 7 4 3 3 3 3 5 5 6 8 8 9 11 10 9 5 6 9 11 10 9 10 11 12 12 11 10 9 10 10 10 13 14 13 10
7 7 7 6 3 3 3 3 3 5 4 6 7 9 11 11 12 13 13 13 12 12 12 13 12 10 10 11 12 12 12 11 11 11 11 11 10 10 10 10 9 9 8 8 7 7 7 6 8 9 8 4 4 5 4 5 6 6 6 8 8 8 10 11 8 8 7 10 11 10 10 10 10 11 11 11 11 11 11 12 12 16 15 15 14
8 7 7 7 4 2 2 1 1 2 2 5 5 5 7 8 9 10 11 12 12 10 10 10 11 10 10 11 11 11 10 10 10 10 9 9 8 9 8 9 8 7 7 6 6 6 6 6 6 7 6 5 4 4 8 7 6 5 6 8 8 8 9 10 11 8 7 7 9 9 10 10 12 10 11 11 11 12 13 14 15 18 17 17 17
10 9 8 7 6 3 2 2 1 2 1 4 4 4 5 6 7 8 8 10 9 10 9 9 10 10 9 9 9 10 9 9 8 8 7 7 8 7 8 8 7 7 6 6 5 5 5 6 6 5 5 5 6 6 7 6 7 5 5 7 7 7 9 10 10 9 8 7 8 10 11 12 11 11 12 13 14 15 16 17 19 20 19 19 20
12 10 9 7 7 6 3 3 3 3 2 3 3 4 5 5 6 6 7 8 8 8 9 9 8 8 7 8 8 8 8 7 7 7 8 8 7 7 6 7 6 6 5 5 5 5 5 5 5 6 7 6 8 12 12 9 10 15 11 8 7 7 9 9 9 10 9 8 8 10 12 12 12 13 13 14 15 16 18 20 21 23 22 22 24
17 13 11 9 9 8 6 5 4 4 3 3 3 4 5 6 6 6 7 6 8 8 7 8 8 6 6 6 7 7 8 8 7 7 7 8 7 6 6 6 6 6 6 6 6 6 6 6 6 7 7 7 7 6 8 7 8 10 8 7 7 9 9 8 9 9 9 9 10 11 12 14 13 14 14 16 17 17 19 21 23 24 25 26 25
18 15 12 11 12 10 8 7 7 6 5 4 4 6 6 6 6 6 6 6 7 8 7 6 7 6 6 6 7 7 8 8 8 7 6 6 6 6 5 6 6 6 6 6 6 6 6 6 7 6 6 6 6 6 5 5 6 7 7 7 8 10 10 10 11 11 10 10 10 13 14 14 15 15 16 18 19 19 21 21 22 23 25 27 29
18 17 14 12 12 12 11 10 9 8 7 6 5 6 7 7 7 nan 8 7 7 6 6 6 6 7 7 7 7 8 8 9 9 8 7 6 7 7 6 6 6 6 6 6 6 6 5 5 6 6 6 5 4 5 6 5 5 6 6 8 9 10 9 10 12 12 11 11 11 13 14 15 15 16 17 19 19 19 20 22 23 23 24 26 30
18 17 16 14 12 14 15 14 13 11 10 8 6 5 6 8 9 9 7 7 8 7 6 6 6 6 8 8 8 8 8 8 9 9 8 7 8 7 7 6 6 6 7 6 7 6 6 6 6 7 5 4 4 6 7 8 9 8 7 9 9 10 9 11 11 12 11 12 11 13 16 17 17 18 17 19 21 21 22 24 24 26 27 29 31
17 17 16 15 16 17 17 18 18 17 14 10 8 7 7 8 7 8 7 6 6 9 9 7 5 5 6 8 8 8 8 9 8 3 5 8 8 8 8 7 8 8 8 8 8 7 6 6 6 2 3 3 4 7 8 8 8 10 10 11 12 12 12 13 13 13 14 13 13 16 17 17 19 20 20 20 21 23 25 26 28 29 30 31 31
17 18 17 18 18 18 18 17 18 18 18 16 11 8 8 8 8 7 7 7 6 8 9 7 6 6 5 6 6 7 8 9 6 4 2 2 6 7 8 8 8 7 7 7 7 7 8 7 8 4 4 3 5 7 9 9 9 9 10 13 14 16 16 15 15 18 18 16 16 18 18 19 20 22 23 23 25 25 25 27 29 30 31 33 32
18 19 19 19 19 18 18 18 18 18 19 18 16 12 9 9 10 9 8 7 8 7 8 6 6 6 6 5 5 6 7 5 5 5 4 2 3 8 9 10 10 9 8 7 7 8 9 9 9 10 10 9 10 10 10 11 12 12 14 15 15 16 18 18 19 19 19 19 19 19 21 21 23 26 25 26 26 27 27 29 30 31 31 32 34
18 20 19 18 18 19 19 19 18 19 19 19 19 17 13 10 10 11 9 9 9 8 7 7 6 6 6 5 5 5 7 4 4 5 5 5 4 7 11 10 9 9 8 8 9 9 11 12 11 11 11 8 12 15 15 15 15 16 18 21 24 24 23 21 20 21 23 23 23 22 23 25 27 26 27 28 29 29 30 30 31 31 31 34 35
17 22 23 20 19 20 21 20 20 20 21 21 22 21 18 13 11 13 14 13 10 8 8 7 8 8 7 7 7 8 8 6 6 6 7 7 5 7 12 11 10 10 9 10 11 11 13 14 13 12 13 14 18 18 18 18 20 19 20 22 23 23 26 26 25 25 26 25 26 25 25 27 28 29 29 30 31 31 34 34 35 35 36 35 37
16 20 23 23 22 23 24 23 22 23 25 24 23 21 20 19 17 16 16 15 13 11 11 11 12 12 10 10 10 9 10 8 7 8 8 8 7 9 12 13 12 12 12 13 13 14 14 14 15 15 16 17 19 21 21 22 24 24 24 24 24 24 24 25 25 28 28 27 26 28 30 28 29 30 30 31 31 33 37 37 37 37 38 37 37
16 20 24 26 26 26 26 25 25 25 25 25 24 21 20 20 20 20 21 20 19 18 17 16 15 15 15 14 14 13 13 11 9 9 9 9 11 15 15 15 15 14 14 15 16 16 16 17 17 18 19 20 20 24 25 26 27 27 27 26 26 26 27 27 27 31 30 29 30 32 31 30 31 31 31 32 36 40 40 37 nan nan nan nan 36
19 17 18 20 24 26 27 26 24 23 24 23 22 21 21 21 21 23 23 23 23 22 20 18 18 18 19 19 17 17 17 15 12 12 13 16 24 17 15 15 16 16 17 18 18 18 19 19 20 20 22 22 24 29 31 33 30 30 30 29 29 29 30 30 35 36 36 37 37 37 36 35 34 32 32 34 39 41 38 nan nan nan nan nan nan
24 22 20 19 19 21 23 25 25 24 23 21 20 21 22 25 24 27 27 26 24 23 24 23 22 21 20 20 19 19 19 17 14 13 14 18 20 15 15 17 17 18 19 20 20 20 20 21 22 23 24 25 29 33 35 34 31 32 33 33 32 33 33 33 34 33 35 36 36 36 36 37 37 40 41 43 43 nan nan nan nan nan nan nan nan
27 25 23 23 23 21 21 23 24 23 22 22 22 22 24 26 32 34 31 29 26 27 26 26 26 26 24 22 20 20 21 20 18 16 16 18 20 21 22 21 20 20 23 23 23 23 22 21 23 25 26 27 33 34 36 35 33 33 34 35 34 34 34 35 36 36 34 34 33 34 36 39 40 40 39 41 nan nan nan nan nan nan nan nan 47
26 28 28 28 27 25 24 23 23 24 23 25 26 25 26 32 30 26 20 20 23 26 29 29 29 29 28 27 25 24 25 26 24 20 19 21 21 25 26 26 23 23 25 27 25 24 23 24 24 28 28 31 35 35 35 35 34 34 35 34 34 34 34 34 35 37 37 38 39 37 37 35 36 35 32 33 nan nan nan nan nan nan nan nan nan
31 31 32 32 32 30 27 23 22 23 25 27 28 27 26 24 23 23 23 26 29 32 37 43 39 35 33 32 29 29 30 30 31 27 26 26 24 25 29 27 27 27 28 28 27 26 26 27 28 30 31 33 35 36 34 34 36 36 35 33 32 37 38 37 39 43 44 45 43 41 38 nan nan 32 nan nan nan nan nan nan nan nan nan nan nan
32 32 33 33 35 36 34 30 26 25 27 29 29 27 27 27 25 24 26 29 31 39 45 46 43 39 35 34 33 34 34 34 33 31 29 29 28 27 30 29 30 33 32 30 29 28 28 30 31 33 35 35 36 36 35 34 37 37 34 35 41 43 39 40 41 45 47 45 41 42 nan nan nan nan nan nan nan 46 nan nan nan nan nan nan nan
33 33 33 33 35 nan nan 37 36 33 30 29 28 27 27 27 26 27 29 32 41 45 43 38 37 37 32 31 33 34 35 36 35 35 33 32 31 29 30 33 35 36 35 32 31 30 32 33 33 38 40 40 39 38 36 37 39 39 42 40 42 43 43 40 42 45 46 43 41 nan nan nan nan nan nan nan nan nan nan nan nan nan nan nan nan
32 34 35 35 nan nan nan nan 39 39 36 33 31 29 29 28 28 29 32 37 40 39 35 32 34 35 35 38 37 36 36 37 37 37 38 37 35 33 35 39 39 38 38 37 37 38 38 37 39 43 42 42 41 40 39 39 39 44 46 50 51 49 44 44 43 45 45 43 nan nan nan nan nan nan nan nan nan nan nan nan nan nan nan nan nan
30 32 34 nan nan nan nan nan nan nan 41 41 36 31 28 29 30 32 34 39 36 30 25 28 30 31 35 38 39 41 42 42 41 40 41 40 40 39 38 39 39 41 44 44 44 42 42 44 45 43 41 40 42 43 43 44 47 49 53 55 52 48 49 48 48 47 44 40 nan nan nan nan nan nan nan nan nan nan nan nan nan nan nan nan nan
30 32 32 35 38 nan nan nan nan nan nan 41 40 38 35 34 34 35 34 36 33 27 22 27 29 31 33 35 37 40 44 45 44 43 43 42 42 40 40 41 42 46 47 46 48 48 47 46 46 43 40 40 41 40 40 43 50 54 54 52 47 48 48 47 45 42 nan nan nan nan nan nan nan nan nan nan nan nan nan nan nan nan nan nan nan
30 30 nan nan nan nan nan nan nan nan nan nan 43 43 42 39 39 37 35 33 31 25 25 29 31 32 33 36 38 39 41 42 45 46 46 46 45 45 46 47 47 46 44 43 43 43 44 42 40 38 34 33 38 42 44 48 50 47 45 43 44 40 36 34 nan nan nan nan nan nan nan nan nan nan nan nan nan nan nan nan nan nan nan nan nan
26 27 nan nan nan nan nan nan 40 37 38 nan nan 46 47 45 41 37 35 32 27 25 28 31 33 33 34 36 38 38 39 39 41 44 47 48 47 46 45 45 43 43 43 40 41 42 43 44 45 42 42 40 42 43 42 41 44 42 39 37 33 29 nan nan nan nan nan nan nan nan nan nan nan nan nan nan nan nan nan nan nan nan nan nan nan
24 25 26 nan nan 35 38 nan 39 nan 37 38 41 nan nan 47 44 39 36 33 30 30 33 36 35 33 36 36 36 36 37 36 37 44 47 48 49 48 45 44 44 43 43 45 44 44 44 44 45 44 41 41 43 44 43 43 42 37 33 29 28 28 29 nan nan nan nan nan nan nan nan nan nan nan nan nan nan nan nan nan nan nan nan nan nan
24 24 24 nan nan 29 34 nan 38 38 38 37 38 42 51 nan nan 43 39 33 31 34 32 33 35 38 39 39 38 37 33 35 44 51 53 53 52 50 48 47 46 47 46 46 44 44 44 44 43 43 42 40 40 44 45 44 42 34 27 26 27 27 nan nan nan nan nan nan nan nan nan nan nan nan nan nan nan nan nan nan nan nan nan nan nan
23 24 25 25 27 29 nan nan nan 38 38 nan 39 41 44 nan nan 54 46 46 48 46 42 41 39 36 38 38 39 43 41 40 43 46 49 52 55 55 53 52 51 49 47 48 46 45 nan nan 44 nan 42 nan 40 42 44 40 34 29 26 25 25 nan nan nan nan nan nan nan nan nan nan nan nan nan nan nan nan nan nan nan nan nan nan nan nan
22 22 24 26 28 29 32 nan nan 38 nan nan nan 38 40 46 50 51 51 53 55 52 49 49 47 46 41 35 31 28 29 30 35 39 42 48 53 53 51 49 nan nan nan nan nan nan nan nan nan nan nan 42 43 43 41 35 32 30 28 26 nan nan nan nan nan nan nan nan nan nan nan nan nan nan nan nan nan nan nan nan nan nan nan nan nan
23 24 23 23 25 28 29 31 33 34 nan nan nan 35 36 nan nan nan 48 52 54 51 49 48 47 43 38 31 25 26 27 25 29 34 39 44 nan nan nan nan nan nan nan nan 44 43 43 44 44 44 44 44 43 40 nan 34 31 29 25 23 23 nan nan nan nan nan nan nan nan nan nan nan nan nan nan nan nan nan nan nan nan nan nan nan nan
25 24 22 22 23 25 25 26 27 28 28 nan nan 32 33 34 37 38 38 37 40 44 48 51 48 44 nan nan nan nan nan nan nan nan nan nan nan nan 47 44 43 nan nan nan nan nan 43 44 44 43 nan 40 37 35 32 29 26 24 nan nan nan nan nan nan nan nan nan nan nan nan nan nan nan nan nan nan nan nan nan nan nan nan nan nan nan
24 26 30 27 23 22 22 22 22 23 26 29 nan nan nan nan nan nan 30 28 29 nan nan nan nan nan nan nan nan nan nan nan nan nan 37 41 43 43 44 43 42 41 42 41 nan nan nan nan nan nan nan nan 30 29 nan nan nan nan nan nan nan nan nan nan nan nan nan nan nan nan nan nan nan nan nan nan nan nan nan nan nan nan nan nan nan
24 24 27 26 24 21 21 19 19 20 24 27 28 30 nan nan nan nan nan nan nan nan nan nan nan nan nan nan nan nan 37 37 37 36 36 37 36 35 38 39 40 39 39 39 nan nan nan nan nan nan nan nan nan nan nan nan nan nan nan nan nan nan nan nan nan nan nan nan nan nan nan nan nan nan nan nan nan nan nan nan nan nan nan nan nan
22 22 25 24 22 21 19 18 17 18 22 25 27 29 31 33 nan nan 38 35 35 nan nan nan nan nan 38 36 37 36 36 36 36 36 35 34 32 32 34 34 nan nan nan nan nan nan nan nan nan nan nan nan nan nan nan nan nan nan nan nan nan nan nan nan nan nan nan nan nan nan nan nan nan nan nan nan nan nan nan nan nan nan nan nan nan
22 22 22 21 22 22 21 19 17 18 20 22 24 26 28 30 32 33 33 nan nan nan nan 28 28 29 30 27 27 25 27 29 32 31 29 29 nan nan nan nan nan nan 24 23 21 nan nan nan nan nan nan nan nan nan nan nan nan nan nan nan nan nan nan nan nan nan nan nan nan nan nan nan nan nan nan nan nan nan nan nan nan nan nan nan nan
20 nan 19 21 22 21 19 17 16 17 17 17 nan nan nan nan nan nan nan nan nan nan nan 23 22 21 21 20 20 18 nan nan 17 nan nan nan nan 22 nan nan 21 19 18 17 17 17 16 nan nan nan nan nan nan nan nan nan nan nan nan nan nan nan nan nan nan nan nan nan nan nan nan nan nan nan nan nan nan nan nan nan nan nan nan nan nan
nan nan nan nan nan nan 21 19 18 18 15 14 16 nan nan nan nan nan nan nan nan nan nan nan nan 19 17 17 nan nan nan nan nan nan nan nan nan nan nan nan nan 17 15 16 18 18 18 17 nan nan nan nan nan nan nan nan nan nan nan nan nan nan nan nan nan nan nan nan nan nan nan nan nan nan nan nan nan nan nan nan nan nan nan nan nan
nan 19 nan nan nan nan nan nan nan nan nan nan nan nan nan nan nan nan nan nan nan nan nan nan nan 18 17 nan nan nan nan nan nan nan nan nan nan nan nan nan nan nan nan nan nan 20 nan 21 21 nan nan nan nan nan nan nan nan nan nan nan nan nan nan nan nan nan nan nan nan nan nan nan nan nan nan nan nan nan nan nan nan nan nan nan nan
nan nan nan nan nan nan nan nan nan nan nan nan nan nan nan nan nan nan nan nan nan nan nan nan nan nan nan nan nan nan nan nan nan nan nan nan nan nan nan nan nan nan nan nan nan nan nan nan nan nan nan nan nan nan nan nan nan nan nan nan nan nan nan nan nan nan nan nan nan nan nan nan nan nan nan nan nan nan nan nan nan nan nan nan nan
nan nan nan nan nan nan nan nan nan nan nan nan nan nan nan nan nan nan nan nan nan nan nan nan nan nan nan nan nan nan nan nan nan nan nan nan nan nan nan nan nan nan nan nan nan nan nan nan nan nan nan nan nan nan nan nan nan nan nan nan nan nan nan nan nan nan nan nan nan nan nan nan nan nan nan nan nan nan nan nan nan nan nan nan nan
2 nan nan nan nan nan nan nan nan nan nan nan nan nan nan nan nan nan nan nan nan nan nan nan nan nan nan nan nan nan nan nan nan nan nan nan nan nan nan nan nan nan nan nan nan nan nan nan nan nan nan nan nan nan nan nan nan nan nan nan nan nan nan nan nan nan nan nan nan nan nan nan nan nan nan nan nan nan nan nan nan nan nan nan nan
5 nan nan nan nan nan nan nan nan nan nan nan nan nan nan nan nan nan nan nan nan nan nan nan nan nan nan nan nan nan nan nan nan nan nan nan nan nan nan nan nan nan nan nan nan nan nan nan nan nan nan nan nan nan nan nan nan nan nan nan nan nan nan nan nan nan nan nan nan nan nan nan nan nan nan nan nan nan nan nan nan nan nan nan nan
nan nan nan nan nan nan nan nan nan nan nan nan nan nan nan nan nan nan nan nan nan nan nan nan nan nan nan nan nan nan nan nan nan nan nan nan nan nan nan nan nan nan nan nan nan nan nan nan nan nan nan nan nan nan nan nan nan nan nan nan nan nan nan nan nan nan nan nan nan nan nan nan nan nan nan nan nan nan nan nan nan nan nan nan nan
nan nan nan nan nan nan nan nan nan nan nan nan nan nan nan nan nan nan nan nan nan nan nan nan nan nan nan nan nan nan nan nan nan nan nan nan nan nan nan nan nan nan nan nan nan nan nan nan nan nan nan nan nan nan nan nan nan nan nan nan nan nan nan nan nan nan nan nan nan nan nan nan nan nan nan nan nan nan nan nan nan nan nan nan nan
nan nan nan nan nan nan nan nan nan nan nan nan nan nan nan nan nan nan nan nan nan nan nan nan nan nan nan nan nan nan nan nan nan nan nan nan nan nan nan nan nan nan nan nan nan nan nan nan nan nan nan nan nan nan nan nan nan nan nan nan nan nan nan nan nan nan nan nan nan nan nan nan nan nan nan nan nan nan nan nan nan nan nan nan nan
nan nan nan nan nan nan nan nan nan nan nan nan nan nan nan nan nan nan nan nan nan nan nan nan nan nan nan nan nan nan nan nan nan nan nan nan nan nan nan nan nan nan nan nan nan nan nan nan nan nan nan nan nan nan nan nan nan nan nan nan nan nan nan nan nan nan nan nan nan nan nan nan nan nan nan nan nan nan nan nan nan nan nan nan nan
nan nan nan nan nan nan nan nan nan nan nan nan nan nan nan nan nan nan nan nan nan nan nan nan nan nan nan nan nan nan nan nan nan nan nan nan nan nan nan nan nan nan nan nan nan nan nan nan nan nan nan nan nan nan nan nan nan nan nan nan nan nan nan nan nan nan nan nan nan nan nan nan nan nan nan nan nan nan nan nan nan nan nan nan nan
nan nan nan nan nan nan nan nan nan nan nan nan nan nan nan nan nan nan nan nan nan nan nan nan nan nan nan nan nan nan nan nan nan nan nan nan nan nan nan nan nan nan nan nan nan nan nan nan nan nan nan nan nan nan nan nan nan nan nan nan nan nan nan nan nan nan nan nan nan nan nan nan nan nan nan nan nan nan nan nan nan nan nan nan nan
Wind_Direction
151 135 134 114 99 90 94 112 121 141 143 150 158 161 165 166 166 161 167 172 186 193 195 195 196 194 197 198 200 199 198 198 200 204 204 201 200 201 200 205 202 193 191 180 181 182 178 177 176 175 174 182 220 244 261 281 286 302 298 300 313 312 317 319 316 320 289 292 293 300 299 300 296 299 301 296 292 289 291 294 292 289 286 290 297
181 161 155 147 131 109 99 117 134 160 162 163 169 172 169 166 165 167 169 171 180 187 195 202 202 202 200 199 199 201 200 198 197 203 203 203 200 201 200 203 200 187 192 181 176 181 187 186 178 175 191 201 237 261 277 288 302 305 308 319 325 324 313 307 317 305 302 281 286 292 293 288 295 289 287 285 283 283 279 283 285 284 287 294 293
203 193 177 167 164 167 157 156 175 173 201 196 180 183 178 171 172 173 172 178 181 184 187 198 209 211 209 206 205 203 204 198 198 202 201 206 207 202 203 209 203 192 188 179 181 190 185 190 182 189 201 204 212 227 261 275 291 306 321 310 314 314 309 307 296 300 300 292 298 295 296 283 285 284 280 285 282 283 281 280 285 289 292 291 292
214 211 205 187 184 198 212 220 236 237 250 221 210 199 200 187 186 186 181 186 192 189 192 195 205 211 215 215 215 213 210 206 203 203 203 209 212 209 205 208 208 203 193 186 185 195 189 190 186 192 190 192 195 200 229 250 269 285 286 283 290 293 290 291 295 295 298 301 285 296 295 286 287 286 287 286 283 280 285 285 283 284 286 287 286
219 220 223 215 202 201 219 245 250 252 256 239 230 221 216 207 200 193 197 196 201 200 194 199 202 208 210 213 216 216 217 218 216 209 207 210 216 216 209 208 208 206 200 189 188 201 202 201 192 203 205 200 203 216 229 221 227 229 213 240 280 278 272 281 288 286 297 313 302 290 293 290 291 289 287 290 287 285 283 285 289 289 287 285 288
218 221 225 230 222 214 212 231 252 258 259 254 250 238 229 229 221 203 206 203 209 211 205 201 204 206 204 208 210 205 210 220 223 221 215 212 213 212 208 210 213 213 209 206 205 211 211 204 194 199 201 206 234 239 240 243 252 275 282 258 263 269 279 283 288 302 307 316 306 294 289 291 288 292 293 291 292 291 287 287 292 294 294 293 290
220 222 224 227 232 228 226 228 238 246 252 247 243 243 238 239 241 230 219 212 213 220 211 207 205 210 205 207 203 198 201 210 216 221 220 220 221 216 208 215 220 223 220 220 218 217 216 210 206 209 212 225 227 237 243 249 277 294 303 295 283 290 299 305 304 308 310 303 295 297 296 295 298 298 294 292 294 293 294 290 288 291 296 295 289
229 225 223 226 234 237 233 233 236 242 245 242 238 241 240 240 240 nan 228 224 216 222 224 213 208 211 213 210 206 204 205 210 215 214 214 221 231 228 225 223 223 220 219 220 221 221 222 219 216 223 228 234 246 247 270 293 286 296 294 292 296 295 298 296 295 302 307 302 305 307 305 303 299 299 295 291 294 293 294 293 295 291 289 288 294
233 231 228 227 231 238 240 240 237 238 242 248 247 243 244 239 239 234 226 219 221 228 229 228 215 205 211 213 210 210 209 211 215 219 219 221 226 231 233 227 222 219 214 210 211 211 208 208 209 218 226 262 299 278 293 292 284 283 279 281 285 290 285 283 294 297 299 300 304 299 301 304 310 304 303 301 303 306 297 293 293 293 289 290 290
237 232 234 235 233 230 234 237 243 243 245 244 245 252 251 246 241 242 238 230 220 226 227 226 219 204 203 209 214 216 216 216 222 269 247 228 228 224 226 223 219 215 208 200 199 200 199 209 217 279 317 331 316 303 303 306 301 286 284 287 288 291 292 289 291 293 298 306 311 309 309 313 313 311 308 307 302 297 295 294 295 295 292 286 288
234 234 234 236 238 236 233 233 238 242 242 243 241 239 251 254 247 243 244 243 240 232 231 224 215 205 200 203 204 206 213 218 269 291 309 308 233 224 228 223 218 213 207 202 193 197 207 222 231 244 274 273 271 311 311 312 312 298 296 304 298 296 293 292 291 292 297 302 302 304 309 311 310 307 307 305 304 304 304 302 299 298 297 295 290
232 231 236 239 238 239 237 233 234 236 239 240 239 237 238 243 248 248 247 243 237 234 235 232 218 210 201 198 199 201 204 209 284 286 292 304 244 224 221 222 221 222 222 222 213 214 227 239 241 242 245 256 257 264 280 302 303 297 297 301 309 305 296 296 295 292 291 294 299 309 305 308 307 308 305 304 307 305 306 303 302 305 304 300 295
228 227 231 235 229 227 229 232 233 231 231 234 236 234 233 234 240 243 248 246 240 233 229 232 229 220 214 210 210 215 216 222 267 277 277 279 278 246 227 227 228 227 232 232 229 229 237 247 249 246 249 285 271 265 269 275 290 297 296 293 285 283 282 287 298 297 293 294 300 307 310 305 306 307 304 304 303 304 302 302 303 305 302 298 295
231 223 223 222 218 216 218 222 224 225 227 229 231 232 230 230 234 239 237 238 243 235 225 227 226 225 222 222 224 230 234 245 274 272 267 274 272 246 233 240 241 243 246 248 246 246 250 256 259 258 257 260 266 273 275 280 283 283 282 280 282 284 284 287 286 294 294 296 301 308 305 302 307 304 300 300 303 305 303 304 301 299 297 296 295
231 228 225 224 223 219 218 219 220 220 223 226 230 229 228 224 227 234 238 237 236 236 227 217 215 218 218 222 224 231 236 270 281 282 269 264 262 253 238 245 250 252 256 258 259 258 259 264 269 274 272 274 276 283 286 289 288 288 289 288 285 284 282 280 280 282 283 287 297 300 299 297 298 300 300 300 303 303 303 302 303 300 297 294 293
230 217 218 225 229 230 228 224 221 222 226 229 227 226 226 226 225 230 233 230 227 229 226 223 220 218 217 219 220 223 230 263 277 282 280 276 267 239 238 246 252 255 257 258 259 262 266 271 274 277 278 282 289 303 295 290 291 292 290 288 286 283 281 280 278 279 280 283 289 296 296 293 295 298 299 300 300 297 295 294 nan nan nan nan 295
245 247 241 231 228 228 230 231 231 230 230 229 229 227 227 226 224 226 230 232 230 229 232 232 228 228 227 224 225 223 224 241 264 274 275 272 257 244 238 242 250 257 261 262 264 268 270 273 278 282 283 286 294 300 296 295 293 295 294 291 289 287 283 280 275 276 277 278 284 289 291 289 289 294 297 304 301 299 296 nan nan nan nan nan nan
230 232 237 243 242 239 237 234 231 231 233 231 230 229 228 229 228 226 224 226 232 231 230 232 233 235 237 235 237 236 231 239 259 261 266 270 272 258 251 250 250 256 259 261 266 270 277 295 289 284 286 286 295 300 300 298 296 296 295 294 293 291 288 288 284 278 274 277 284 291 292 289 287 292 299 301 301 nan nan nan nan nan nan nan nan
224 227 228 232 235 236 236 235 234 233 230 228 231 233 233 234 236 237 234 232 230 228 232 236 236 235 237 239 244 246 242 244 261 264 263 265 263 252 253 251 250 252 257 260 259 266 270 282 298 288 284 286 294 298 301 298 296 297 297 295 295 293 294 293 290 285 280 281 286 290 287 285 288 289 294 301 nan nan nan nan nan nan nan nan 301
226 226 229 233 234 233 230 231 232 233 231 230 233 235 236 237 239 244 245 242 246 250 242 237 243 240 238 240 238 242 243 242 248 259 259 259 263 253 252 254 255 257 257 261 262 258 265 270 280 289 291 288 291 295 299 300 295 292 291 294 293 296 295 292 289 285 279 280 283 283 285 285 282 281 283 288 nan nan nan nan nan nan nan nan nan
234 230 229 229 230 231 232 232 230 231 233 235 236 235 237 241 243 244 239 233 229 233 242 235 229 235 243 242 243 241 243 246 242 252 257 261 262 258 255 257 258 259 260 262 265 268 267 267 267 277 286 285 290 295 298 298 294 291 294 297 298 294 294 290 288 282 278 279 279 278 279 nan nan 273 nan nan nan nan nan nan nan nan nan nan nan
236 234 232 231 230 229 226 224 227 228 230 235 237 236 236 239 241 243 243 242 238 234 237 243 239 225 227 245 247 247 246 251 251 251 259 264 269 269 260 260 262 262 262 263 264 265 269 268 270 274 280 281 284 289 293 296 293 282 281 277 283 295 292 285 283 280 277 276 276 276 nan nan nan nan nan nan nan 288 nan nan nan nan nan nan nan
237 236 235 235 234 nan nan 223 220 223 228 232 235 235 238 241 240 240 242 244 241 241 246 254 254 249 243 240 248 251 252 252 256 253 256 261 266 266 264 260 263 265 268 267 267 267 265 267 268 274 278 279 283 288 295 295 290 285 287 287 288 281 277 283 283 279 277 279 280 nan nan nan nan nan nan nan nan nan nan nan nan nan nan nan nan
240 238 237 235 nan nan nan nan 226 223 221 228 233 234 238 242 243 243 245 249 251 248 248 251 252 251 250 249 250 251 251 250 253 257 255 255 256 260 258 257 259 260 265 268 267 263 264 263 266 273 278 280 282 286 291 291 285 288 292 286 284 283 279 275 273 273 277 282 nan nan nan nan nan nan nan nan nan nan nan nan nan nan nan nan nan
243 240 239 nan nan nan nan nan nan nan 227 223 224 232 237 239 240 244 248 254 259 260 262 262 263 258 252 254 256 256 256 253 252 255 260 259 259 260 259 257 255 258 260 260 261 261 263 268 271 275 277 280 282 281 281 285 291 291 289 289 285 279 278 277 276 277 279 279 nan nan nan nan nan nan nan nan nan nan nan nan nan nan nan nan nan
244 242 239 237 235 nan nan nan nan nan nan 230 227 225 229 235 236 240 245 252 261 266 261 258 257 254 252 251 254 257 257 255 252 252 255 258 254 254 257 257 258 256 257 259 262 265 267 269 272 275 278 278 279 281 284 291 293 289 289 295 294 286 280 281 281 279 nan nan nan nan nan nan nan nan nan nan nan nan nan nan nan nan nan nan nan
247 244 nan nan nan nan nan nan nan nan nan nan 229 228 227 230 237 238 239 250 260 261 259 256 254 254 253 252 253 256 259 257 255 253 253 252 252 254 253 251 253 256 257 259 261 262 265 265 267 269 263 280 286 284 285 297 300 291 283 291 298 291 281 280 nan nan nan nan nan nan nan nan nan nan nan nan nan nan nan nan nan nan nan nan nan
249 248 nan nan nan nan nan nan 232 234 232 nan nan 228 231 231 233 241 248 254 259 255 253 252 253 255 256 256 256 257 260 261 260 259 257 256 253 253 256 257 257 258 260 259 259 259 261 263 262 261 263 265 269 271 275 284 293 292 285 286 286 279 nan nan nan nan nan nan nan nan nan nan nan nan nan nan nan nan nan nan nan nan nan nan nan
248 246 245 nan nan 242 239 nan 236 nan 236 239 238 nan nan 230 231 233 241 248 254 255 250 248 251 254 260 263 262 259 260 264 262 257 258 259 257 254 254 256 256 255 260 265 261 260 260 261 263 264 267 271 273 276 278 280 283 286 281 273 268 271 278 nan nan nan nan nan nan nan nan nan nan nan nan nan nan nan nan nan nan nan nan nan nan
246 245 245 nan nan 249 245 nan 239 238 239 240 241 241 238 nan nan 234 233 235 257 262 265 256 253 254 255 251 251 261 258 250 254 257 257 256 255 253 253 255 256 257 262 264 262 262 262 263 265 268 269 269 274 280 282 283 285 281 270 264 273 282 nan nan nan nan nan nan nan nan nan nan nan nan nan nan nan nan nan nan nan nan nan nan nan
247 247 247 246 248 249 nan nan nan 240 238 nan 237 237 235 nan nan 231 236 240 247 252 256 260 265 264 263 258 244 249 258 260 263 263 261 259 260 258 255 255 260 264 264 260 259 263 nan nan 266 nan 266 nan 275 278 279 280 278 272 268 273 282 nan nan nan nan nan nan nan nan nan nan nan nan nan nan nan nan nan nan nan nan nan nan nan nan
251 253 252 250 249 246 245 nan nan 241 nan nan nan 231 232 236 234 229 232 243 245 248 250 248 244 245 249 256 257 244 256 268 275 275 271 266 263 261 258 259 nan nan nan nan nan nan nan nan nan nan nan 271 272 273 272 266 263 267 276 282 nan nan nan nan nan nan nan nan nan nan nan nan nan nan nan nan nan nan nan nan nan nan nan nan nan
250 250 250 249 247 244 241 240 242 241 nan nan nan 228 230 nan nan nan 235 239 247 247 243 243 242 237 237 240 256 275 276 268 268 275 276 271 nan nan nan nan nan nan nan nan 262 263 264 265 267 269 271 272 270 267 nan 260 263 272 281 284 283 nan nan nan nan nan nan nan nan nan nan nan nan nan nan nan nan nan nan nan nan nan nan nan nan
249 250 249 246 242 240 243 246 243 243 238 nan nan 225 225 228 235 236 234 236 238 239 240 236 231 230 nan nan nan nan nan nan nan nan nan nan nan nan 258 253 253 nan nan nan nan nan 263 264 265 265 nan 262 259 257 256 259 266 275 nan nan nan nan nan nan nan nan nan nan nan nan nan nan nan nan nan nan nan nan nan nan nan nan nan nan nan
242 249 251 244 237 244 253 254 247 239 237 233 nan nan nan nan nan nan 229 221 223 nan nan nan nan nan nan nan nan nan nan nan nan nan 274 273 268 265 260 259 258 256 256 256 nan nan nan nan nan nan nan nan 255 256 nan nan nan nan nan nan nan nan nan nan nan nan nan nan nan nan nan nan nan nan nan nan nan nan nan nan nan nan nan nan nan
241 238 237 234 229 234 243 245 245 239 233 232 232 230 nan nan nan nan nan nan nan nan nan nan nan nan nan nan nan nan 264 265 266 269 273 272 270 265 263 261 260 259 257 255 nan nan nan nan nan nan nan nan nan nan nan nan nan nan nan nan nan nan nan nan nan nan nan nan nan nan nan nan nan nan nan nan nan nan nan nan nan nan nan nan nan
242 236 232 228 230 233 237 238 233 232 228 227 229 230 231 233 nan nan 245 249 252 nan nan nan nan nan 257 260 262 259 259 257 255 254 255 254 253 252 252 253 nan nan nan nan nan nan nan nan nan nan nan nan nan nan nan nan nan nan nan nan nan nan nan nan nan nan nan nan nan nan nan nan nan nan nan nan nan nan nan nan nan nan nan nan nan
233 233 232 230 226 221 221 222 220 224 226 227 228 228 229 230 236 240 245 nan nan nan nan 259 258 256 258 257 260 253 248 246 247 242 240 240 nan nan nan nan nan nan 249 248 248 nan nan nan nan nan nan nan nan nan nan nan nan nan nan nan nan nan nan nan nan nan nan nan nan nan nan nan nan nan nan nan nan nan nan nan nan nan nan nan nan
222 nan 227 223 217 214 215 215 213 214 213 216 nan nan nan nan nan nan nan nan nan nan nan 238 235 237 239 239 236 240 nan nan 240 nan nan nan nan 235 nan nan 230 228 234 240 245 252 258 nan nan nan nan nan nan nan nan nan nan nan nan nan nan nan nan nan nan nan nan nan nan nan nan nan nan nan nan nan nan nan nan nan nan nan nan nan nan
nan nan nan nan nan nan 201 201 206 212 209 207 221 nan nan nan nan nan nan nan nan nan nan nan nan 223 226 232 nan nan nan nan nan nan nan nan nan nan nan nan nan 223 234 247 254 260 263 267 nan nan nan nan nan nan nan nan nan nan nan nan nan nan nan nan nan nan nan nan nan nan nan nan nan nan nan nan nan nan nan nan nan nan nan nan nan
nan 193 nan nan nan nan nan nan nan nan nan nan nan nan nan nan nan nan nan nan nan nan nan nan nan 229 232 nan nan nan nan nan nan nan nan nan nan nan nan nan nan nan nan nan nan 262 nan 268 270 nan nan nan nan nan nan nan nan nan nan nan nan nan nan nan nan nan nan nan nan nan nan nan nan nan nan nan nan nan nan nan nan nan nan nan nan
nan nan nan nan nan nan nan nan nan nan nan nan nan nan nan nan nan nan nan nan nan nan nan nan nan nan nan nan nan nan nan nan nan nan nan nan nan nan nan nan nan nan nan nan nan nan nan nan nan nan nan nan nan nan nan nan nan nan nan nan nan nan nan nan nan nan nan nan nan nan nan nan nan nan nan nan nan nan nan nan nan nan nan nan nan
nan nan nan nan nan nan nan nan nan nan nan nan nan nan nan nan nan nan nan nan nan nan nan nan nan nan nan nan nan nan nan nan nan nan nan nan nan nan nan nan nan nan nan nan nan nan nan nan nan nan nan nan nan nan nan nan nan nan nan nan nan nan nan nan nan nan nan nan nan nan nan nan nan nan nan nan nan nan nan nan nan nan nan nan nan
30 nan nan nan nan nan nan nan nan nan nan nan nan nan nan nan nan nan nan nan nan nan nan nan nan nan nan nan nan nan nan nan nan nan nan nan nan nan nan nan nan nan nan nan nan nan nan nan nan nan nan nan nan nan nan nan nan nan nan nan nan nan nan nan nan nan nan nan nan nan nan nan nan nan nan nan nan nan nan nan nan nan nan nan nan
317 nan nan nan nan nan nan nan nan nan nan nan nan nan nan nan nan nan nan nan nan nan nan nan nan nan nan nan nan nan nan nan nan nan nan nan nan nan nan nan nan nan nan nan nan nan nan nan nan nan nan nan nan nan nan nan nan nan nan nan nan nan nan nan nan nan nan nan nan nan nan nan nan nan nan nan nan nan nan nan nan nan nan nan nan
nan nan nan nan nan nan nan nan nan nan nan nan nan nan nan nan nan nan nan nan nan nan nan nan nan nan nan nan nan nan nan nan nan nan nan nan nan nan nan nan nan nan nan nan nan nan nan nan nan nan nan nan nan nan nan nan nan nan nan nan nan nan nan nan nan nan nan nan nan nan nan nan nan nan nan nan nan nan nan nan nan nan nan nan nan
nan nan nan nan nan nan nan nan nan nan nan nan nan nan nan nan nan nan nan nan nan nan nan nan nan nan nan nan nan nan nan nan nan nan nan nan nan nan nan nan nan nan nan nan nan nan nan nan nan nan nan nan nan nan nan nan nan nan nan nan nan nan nan nan nan nan nan nan nan nan nan nan nan nan nan nan nan nan nan nan nan nan nan nan nan
nan nan nan nan nan nan nan nan nan nan nan nan nan nan nan nan nan nan nan nan nan nan nan nan nan nan nan nan nan nan nan nan nan nan nan nan nan nan nan nan nan nan nan nan nan nan nan nan nan nan nan nan nan nan nan nan nan nan nan nan nan nan nan nan nan nan nan nan nan nan nan nan nan nan nan nan nan nan nan nan nan nan nan nan nan
nan nan nan nan nan nan nan nan nan nan nan nan nan nan nan nan nan nan nan nan nan nan nan nan nan nan nan nan nan nan nan nan nan nan nan nan nan nan nan nan nan nan nan nan nan nan nan nan nan nan nan nan nan nan nan nan nan nan nan nan nan nan nan nan nan nan nan nan nan nan nan nan nan nan nan nan nan nan nan nan nan nan nan nan nan
nan nan nan nan nan nan nan nan nan nan nan nan nan nan nan nan nan nan nan nan nan nan nan nan nan nan nan nan nan nan nan nan nan nan nan nan nan nan nan nan nan nan nan nan nan nan nan nan nan nan nan nan nan nan nan nan nan nan nan nan nan nan nan nan nan nan nan nan nan nan nan nan nan nan nan nan nan nan nan nan nan nan nan nan nan
nan nan nan nan nan nan nan nan nan nan nan nan nan nan nan nan nan nan nan nan nan nan nan nan nan nan nan nan nan nan nan nan nan nan nan nan nan nan nan nan nan nan nan nan nan nan nan nan nan nan nan nan nan nan nan nan nan nan nan nan nan nan nan nan nan nan nan nan nan nan nan nan nan nan nan nan nan nan nan nan nan nan nan nan nan